TimeCST,TemperatureF,Dew PointF,Humidity,Sea Level PressureIn,VisibilityMPH,Wind Direction,Wind SpeedMPH,Gust SpeedMPH,PrecipitationIn,Events,Conditions,WindDirDegrees,DateUTC
12:56 AM,39.9,38.8,96,30.14,10.0,Calm,Calm,-,N/A,,Clear,0,2012-11-21 06:56:00
1:56 AM,37.9,36.9,96,30.14,10.0,Calm,Calm,-,N/A,,Clear,0,2012-11-21 07:56:00
2:56 AM,36.9,36.9,100,30.16,10.0,Calm,Calm,-,N/A,,Clear,0,2012-11-21 08:56:00
3:56 AM,34.9,34.9,100,30.17,10.0,Calm,Calm,-,N/A,,Clear,0,2012-11-21 09:56:00
4:56 AM,34.0,34.0,100,30.19,10.0,Calm,Calm,-,N/A,,Clear,0,2012-11-21 10:56:00
5:56 AM,34.0,32.9,96,30.21,10.0,Calm,Calm,-,N/A,,Clear,0,2012-11-21 11:56:00
6:10 AM,32.0,32.0,100,30.19,1.8,Calm,Calm,-,N/A,,Clear,0,2012-11-21 12:10:00
6:20 AM,32.0,32.0,100,30.19,3.0,Calm,Calm,-,N/A,,Clear,0,2012-11-21 12:20:00
6:56 AM,34.0,34.0,100,30.23,8.0,Calm,Calm,-,N/A,,Clear,0,2012-11-21 12:56:00
7:56 AM,43.0,41.9,96,30.24,8.0,Calm,Calm,-,N/A,,Clear,0,2012-11-21 13:56:00
8:56 AM,50.9,43.9,77,30.25,10.0,Calm,Calm,-,N/A,,Clear,0,2012-11-21 14:56:00
9:56 AM,57.9,45.9,64,30.25,10.0,Calm,Calm,-,N/A,,Clear,0,2012-11-21 15:56:00
10:56 AM,61.9,45.0,54,30.24,10.0,North,3.5,-,N/A,,Clear,10,2012-11-21 16:56:00
11:56 AM,63.9,43.0,47,30.22,9.0,North,6.9,-,N/A,,Clear,360,2012-11-21 17:56:00
12:56 PM,64.9,43.0,45,30.21,10.0,North,3.5,-,N/A,,Clear,350,2012-11-21 18:56:00
2:56 PM,64.9,43.0,45,30.21,10.0,North,5.8,-,N/A,,Clear,10,2012-11-21 20:56:00
3:56 PM,61.0,41.9,49,30.22,10.0,Calm,Calm,-,N/A,,Clear,0,2012-11-21 21:56:00
4:56 PM,47.8,41.0,77,30.24,10.0,Calm,Calm,-,N/A,,Clear,0,2012-11-21 22:56:00
5:56 PM,41.0,36.0,82,30.25,10.0,Calm,Calm,-,N/A,,Clear,0,2012-11-21 23:56:00
6:56 PM,39.9,36.9,89,30.27,10.0,Calm,Calm,-,N/A,,Clear,0,2012-11-22 00:56:00
7:56 PM,36.9,34.9,93,30.26,10.0,Calm,Calm,-,N/A,,Clear,0,2012-11-22 01:56:00
8:56 PM,34.0,32.9,96,30.26,5.0,Calm,Calm,-,N/A,,Clear,0,2012-11-22 02:56:00
9:56 PM,32.9,32.9,100,30.26,5.0,Calm,Calm,-,N/A,,Clear,0,2012-11-22 03:56:00
10:56 PM,34.0,32.9,96,30.25,6.0,Calm,Calm,-,N/A,,Clear,0,2012-11-22 04:56:00
11:56 PM,31.1,31.1,100,30.25,5.0,Calm,Calm,-,N/A,,Clear,0,2012-11-22 05:56:00